Regional Weather Roundup
Issued by NWS Sterling, VA

Home | Current Version | Previous Version | Graphics & Text | Print | Product List | Glossary On
Versions: 1 2 3 4 5 6 7 8 9 10 11 12 13 14 15 16 17 18 19 20 21 22 23 24 25 26 27 28 29 30 31 32 33 34 35 36 37 38 39 40 41 42 43 44 45 46 47 48 49 50
000
ASUS41 KLWX 091310
RWRLWX

REGIONAL WEATHER ROUNDUP
NATIONAL WEATHER SERVICE BALTIMORE MD/WASHINGTON DC
800 AM EST TUE FEB 09 2016

Note: "FAIR" indicates few or no clouds below 12,000 feet
with no significant weather and/or obstructions to visibility.
 TC=TEMPERATURE CELSIUS

 * =Non NWS site. Station does not report precipitation (e.g. rain,
    snow, etc.), thunder, or fog.

DCZ001-MDZ009-015-VAZ040>042-051-053>054-091400-
WASHINGTON METRO

CITY           SKY/WX    TMP DP  RH WIND       PRES   REMARKS
WASHINGTON NAT LGT SNOW  36  34  92 CALM      29.59S FOG
DULLES         LGT SNOW  33  32  96 NE3       29.57S FOG
ANDREWS AFB    LGT RAIN  34  33  95 E5        29.56S FOG
FT BELVOIR     LGT RAIN  36  34  93 NW3       29.58S FOG
QUANTICO       LGT RAIN  39  36  89 CALM      29.60R FOG
COLLEGE PARK*  CLOUDY    34  34 100 CALM      29.58S
LEESBURG*      LGT SNOW  34  34 100 CALM      29.58S VSB 3/4
MANASSAS*      LGT RAIN  36  36 100 NW3       29.58R FOG
GAITHERSBURG*  CLOUDY    32  28  86 CALM      29.60S

$$

MDZ006>007-011-014-091400-
BALTIMORE METRO

CITY           SKY/WX    TMP DP  RH WIND       PRES   REMARKS
BWI AIRPORT    LGT SNOW  33  32  96 E8        29.58S VSB 1   WCI  26
MD SCIENCE CTR   N/A     33  31  92 MISG      29.59S
MARTIN STATE   LGT SNOW  34  34 100 N9        29.61S VSB 1   WCI  26
ANNAPOLIS      LGT RAIN  36  34  92 E6        29.59R FOG
FORT MEADE*    CLOUDY    32  32 100 CALM      29.60S

$$

MDZ012-015-019>023-091400-
MARYLAND EASTERN SHORE

CITY           SKY/WX    TMP DP  RH WIND       PRES   REMARKS
OCEAN CITY     CLOUDY    40  36  86 NE7       29.56S
SALISBURY      CLOUDY    38  36  92 NE8       29.56F
BAY BRIDGE AP*   N/A     36  34  93 E9        29.59S WCI  29
CAMBRIDGE*     CLOUDY    36  34  93 NE5       29.56F

$$

MDZ017>025-091400-
SOUTHERN MARYLAND

CITY           SKY/WX    TMP DP  RH WIND       PRES   REMARKS
PATUXENT RIVER CLOUDY    38  35  89 E6        29.57S
ST INIGOES     CLOUDY    39  37  92 NE5       29.56S
LEONARDTOWN*   CLOUDY    36  36 100 CALM      29.58S

$$

MDZ003>005-091400-
NORTH CENTRAL MARYLAND

CITY           SKY/WX    TMP DP  RH WIND       PRES   REMARKS
FREDERICK*     CLOUDY    32  32 100 CALM      29.61R VSB 1/2
HAGERSTOWN APT SNOW      33  32  96 CALM      29.56R VSB 1/4
WESTMINSTER*   SNOW      30  28  93 E3        29.56R VSB 1/4

$$

MDZ501>502-091400-
WESTERN MARYLAND

CITY           SKY/WX    TMP DP  RH WIND       PRES   REMARKS
OAKLAND*       FOG       27  25  93 W9        29.46R VSB 1   WCI  17
CUMBERLAND*    CLOUDY    32  32 100 CALM      29.60R VSB 1

$$

VAZ025>031-091400-
SHENANDOAH VALLEY

CITY           SKY/WX    TMP DP  RH WIND       PRES   REMARKS
WINCHESTER*    RAIN      34  34 100 CALM      29.56R
FRONT ROYAL*   CLOUDY    34  32  93 CALM      29.55S
LURAY*         LGT SNOW  32  32 100 SW7       29.56R
NEW MARKET*    CLOUDY    32  32  99 CALM      29.56R VSB 1
STAUNTON*      LGT SNOW  36  34  93 CALM      29.58R
WAYNESBORO*    CLOUDY    31  28  90 SW5       29.56R

$$

WVZ021-048>050-054>055-091400-
EASTERN WEST VIRGINIA PANHANDLE

CITY           SKY/WX    TMP DP  RH WIND       PRES   REMARKS
MARTINSBURG    LGT SNOW  33  32  96 CALM      29.56S VSB 1
PETERSBURG*    CLOUDY    32  32  99 CALM      29.57R FOG

$$

VAZ036>039-050-091400-
CENTRAL FOOTHILLS

CITY           SKY/WX    TMP DP  RH WIND       PRES   REMARKS
CHARLOTTESVILL FOG       35  33  92 SW3       29.57R VSB 1/2
CULPEPER*      MIX PCPN  35  35 100 CALM      29.58S
ORANGE*        CLOUDY    36  36 100 SW5       29.59R FOG
GORDONSVILLE*  CLOUDY    35  35  99 W3        29.57S FOG
WARRENTON*     RAIN      37  37 100 CALM      29.57S

$$

VAZ055>057-091400-
NORTH AND CENTRAL PIEDMONT

CITY           SKY/WX    TMP DP  RH WIND       PRES   REMARKS
FREDERICKSBRG* CLOUDY    37  37 100 NW5       29.57S
STAFFORD*      CLOUDY    37  37  98 W3        29.61S FOG

$$

NCZ024-NYZ072-PAZ021-071-VAZ022-071-091400-
OTHER REGIONAL OBSERVATIONS

CITY           SKY/WX    TMP DP  RH WIND       PRES   REMARKS
NEW YORK CITY  CLOUDY    28  22  78 VRB3      29.70F
PHILADELPHIA   LGT SNOW  33  28  81 NE8       29.64S WCI  26
PITTSBURGH     LGT SNOW  31  29  92 W3        29.54R VSB 1
ROANOKE        CLOUDY    32  25  75 W7        29.63R
RICHMOND       FAIR      37  36  96 NW3       29.57S
RALEIGH        CLOUDY    36  32  85 SW5       29.65R

$$

ANZ530>537-091400-
MARINE OBSERVATIONS

STATION/POSITION TIME  TEMP    WIND        PRES
                       AIR SEA DIR/SP/G
                 (UTC) (F)     (DEG/KT/KT) (MB)
THOMAS PT LIGHT  NOT AVBL
BALT KEY BRIDGE  1200   35      70/  8/ 10 1002.0S
COVE POINT       1200   37     110/  9/ 13 1001.8F
LEWISETTA        1200   40 42  100/  6/  7 1000.8R
SOLOMONS ISLAND  1200   38 41   80/  8/ 10   N/A
PINEY POINT      1200          100/  5/  6   N/A

$$




USA.gov is the U.S. government's official web portal to all federal, state and local government web resources and services.